Regional Weather Roundup
Issued by NWS Midland/Odessa, TX

Home | Current Version | Previous Version | Text Only | Print | Product List | Glossary On
Versions: 1 2 3 4 5 6 7 8 9 10 11 12 13 14 15 16 17 18 19 20 21 22 23 24 25 26 27 28 29 30 31 32 33 34 35 36 37 38 39 40 41 42 43 44 45 46 47 48 49 50
000
ASUS44 KMAF 272310
RWRMAF
MIDLAND AREA WEATHER ROUNDUP
NATIONAL WEATHER SERVICE MIDLAND TX
600 PM CDT WED JUL 27 2016

...IN SOUTHWEST TEXAS AND SOUTHEAST NEW MEXICO...

CITY           SKY/WX    TMP DP  RH WIND       PRES   REMARKS
ALPINE         PTSUNNY   88  53  30 E9G20     30.11S
ANDREWS        FAIR      93  55  27 NE7       29.99F
ARTESIA        SUNNY     95  54  24 SE8G15    30.00S
BIG SPRING     PTSUNNY   98  60  28 E10       29.97S
CARLSBAD       MOSUNNY   96  53  23 NE6       29.96F
DRYDEN           N/A     96  64  34 NE13G21   29.90F
FORT STOCKTON  SUNNY     93  58  30 VRB6G20   29.97F
GUAD PASS      CLOUDY    85  49  28 NE20G25   30.15F
HOBBS          MOSUNNY   93  48  21 MISG      30.03S
MARFA          PTSUNNY   87  55  33 NE15G23   30.09F
MIDLAND AIRPK  MOSUNNY   98  53  21 E8G16     29.96S
MIDLAND INTL   SUNNY     98  53  22 NE7       29.95F
ODESSA         SUNNY     95  55  26 VRB5      29.97F
PECOS          SUNNY     97  58  26 E14G24    29.93F
PRESIDIO       FAIR      92  59  32 N10       29.92F
SEMINOLE       MOSUNNY   95  53  24 E9        30.00F
SNYDER           N/A     94  61  33 NE8       29.95F
WINK           MOSUNNY   97  56  25 E10       29.94F
$$
...OTHER STATIONS IN TEXAS...

CITY           SKY/WX    TMP DP  RH WIND       PRES   REMARKS
ABILENE        PTSUNNY   93  66  40 SE8       29.93S
AMARILLO       SUNNY     88  61  40 SW9       30.03F
AUSTIN         PTSUNNY   88  70  55 S12       29.91F
BROWNSVILLE    MOSUNNY   90  72  55 SE17      29.89S
CORPUS CHRISTI MOSUNNY   92  72  51 SE15G24   29.89F
DALLAS FTW     PTSUNNY   90  72  55 E8        29.87F
DEL RIO        MOSUNNY   90  72  55 SE14      29.89F
EL PASO        LGT RAIN  88  60  38 E16       30.01S
HOUSTON INT    CLOUDY    84  77  79 SE10      29.93F
LUBBOCK        PTSUNNY   88  58  36 N10       30.02S
SAN ANGELO     SUNNY     98  61  29 NE8       29.91S
SAN ANTONIO    LGT RAIN  76  73  91 N6        29.94F
WACO           CLOUDY    88  73  61 SE24G31   29.90R
WICHITA FALLS  NOT AVBL
$$
...OTHER LOCATIONS IN NEW MEXICO...

CITY           SKY/WX    TMP DP  RH WIND       PRES   REMARKS
ALAMAGORDO     SUNNY     91  54  27 S6        30.04F
ALBUQUERQUE    CLOUDY    92  52  25 SE13G23   30.11F
CANNON AFB     MOSUNNY   85  59  40 SE14      30.09F
CLOVIS         MOSUNNY   84  57  39 SE16      30.10F
HOLLOMAN AFB   SUNNY     92  54  27 S5        30.01F
ROSWELL        SUNNY     96  54  24 VRB7G20   29.99F
RUIDOSO          N/A     81  48  32 S3        30.28F
SANTA FE       CLOUDY    87  47  24 SE24G33   30.19F
TRUTH OR CONSE MOSUNNY   93  49  22 VRB3      30.06F
TUCUMCARI      CLOUDY    96  48  19 E7        30.01F
$$




USA.gov is the U.S. government's official web portal to all federal, state and local government web resources and services.